Theta_e
325 322 318 320 316 316 311 303 294 290 292 288 287 289 290 294 293 293 291 290 294 294 293 296 295 297 298 295 299 296 295 297 295 291 289 295 311 314 323 318 320 326 327 327 328 331 338 344 347 348 348 348 348 348 348 348 348 348 348 347 348 347 347 347 347 347 347 347 348 347 347 347 346 346 346 345 345 345 345 345 345 346 346 346 346 347 346 346 345 343 341 340 338 337 337 337 336
323 318 317 317 316 312 306 296 288 286 282 280 286 286 289 291 291 292 292 291 292 297 292 297 296 298 296 297 295 298 298 298 297 299 301 304 308 317 320 317 322 326 326 326 327 328 331 338 345 347 347 348 348 348 347 348 348 348 347 347 347 347 347 347 347 347 347 347 347 346 346 346 345 344 343 343 343 343 343 343 344 345 346 346 346 346 346 344 342 341 339 338 336 335 335 335 335
318 318 317 316 313 307 302 297 294 280 284 281 282 288 290 291 291 290 293 292 290 291 292 296 296 297 300 298 299 299 295 301 300 301 302 305 313 318 318 319 323 326 325 322 325 326 327 332 343 346 346 347 347 347 347 347 347 347 346 347 347 347 347 348 347 347 347 347 346 345 345 344 344 343 342 341 341 340 341 342 343 343 344 343 343 343 342 342 340 339 337 336 335 334 333 333 332
314 317 313 311 310 299 297 291 284 284 285 279 282 288 288 293 290 293 293 293 289 291 294 298 298 299 299 296 297 297 296 299 302 304 301 307 314 317 319 321 322 323 322 322 321 323 325 333 340 346 345 346 345 345 346 346 346 346 346 346 347 347 347 347 347 346 346 346 345 345 344 343 342 341 340 339 340 339 338 339 339 340 340 340 340 340 340 339 338 336 335 335 334 332 331 330 329
314 317 312 308 304 300 291 291 287 283 284 283 283 287 290 290 293 291 290 292 291 293 294 295 296 297 298 298 296 298 296 297 301 303 302 305 307 317 319 321 321 322 322 321 321 322 323 335 339 342 345 344 344 345 344 345 345 345 345 345 345 345 345 345 345 345 344 344 343 343 342 341 340 340 339 338 337 337 337 337 338 338 338 338 338 338 337 336 335 334 333 332 331 330 328 328 328
311 312 310 312 305 302 295 290 289 287 289 287 288 290 290 291 292 292 292 290 293 292 293 293 296 296 296 295 296 296 296 303 303 303 303 306 309 317 320 321 321 322 321 320 319 320 321 333 338 340 344 343 343 344 344 343 343 343 344 344 344 343 343 343 343 343 343 343 342 342 341 340 339 338 337 336 336 336 336 336 336 336 336 336 335 335 334 333 333 331 331 330 329 328 327 326 327
312 302 301 301 300 297 291 286 284 286 293 291 291 292 296 294 293 294 292 296 295 295 292 297 293 295 294 293 298 299 300 304 304 306 306 306 311 319 320 320 320 320 319 318 318 319 319 333 338 340 342 343 341 343 345 343 342 341 341 340 341 342 342 342 342 342 341 341 341 340 339 338 337 336 335 334 334 334 334 334 334 334 334 333 332 332 333 332 332 331 329 328 328 326 326 325 325
311 308 302 294 290 292 289 286 287 287 290 294 292 293 297 295 292 294 293 294 294 296 294 292 293 295 292 297 295 295 299 302 305 303 304 307 314 318 320 319 319 318 318 317 317 318 324 332 337 339 341 341 342 341 340 341 342 340 338 338 338 339 340 341 340 340 339 339 338 337 337 336 335 334 333 332 332 332 332 333 332 332 331 331 330 330 330 330 330 329 329 327 326 325 324 324 323
306 304 299 294 293 287 284 287 287 289 290 291 293 294 302 299 294 295 292 292 293 293 293 294 293 293 289 292 295 295 296 299 302 304 305 309 315 318 320 319 319 317 317 317 316 317 318 331 335 338 339 340 339 339 339 340 340 338 337 337 337 337 337 337 336 335 335 335 335 335 334 332 332 331 330 330 330 329 329 330 330 330 330 329 329 329 329 329 329 328 327 326 325 324 323 323 322
303 301 295 291 287 289 281 284 286 287 289 291 292 296 295 293 293 293 294 293 293 292 293 292 292 294 291 292 292 295 298 300 301 304 305 310 315 317 318 318 318 316 315 316 316 317 318 327 332 335 336 338 338 338 338 339 338 337 337 336 335 336 336 335 335 335 334 334 334 333 332 332 331 331 329 329 329 328 327 327 328 328 328 328 328 328 328 328 329 327 326 325 324 323 322 321 320
298 296 295 293 287 285 285 284 284 289 288 290 294 296 296 295 295 292 292 293 292 294 293 293 296 294 292 293 295 296 298 299 303 303 305 310 313 316 316 315 315 316 316 314 315 316 318 321 328 332 334 335 336 337 338 337 336 336 336 335 335 334 334 334 334 333 333 333 332 332 332 331 330 330 330 329 328 326 326 326 326 326 327 327 327 327 327 327 326 326 325 325 324 322 321 320 319
296 294 292 285 286 286 283 284 286 289 292 290 292 291 291 293 293 294 292 294 292 292 293 295 297 293 293 291 291 294 297 298 302 303 306 309 313 314 314 311 313 314 314 313 312 314 316 316 321 326 331 330 334 335 336 336 337 334 335 335 334 334 334 333 333 333 332 332 332 331 331 331 330 329 329 328 328 327 326 327 327 327 327 327 326 325 325 324 324 324 324 322 322 321 320 319 318
296 291 288 287 286 286 284 286 288 290 288 288 291 294 292 293 294 294 292 293 292 293 294 295 295 296 294 291 292 293 298 300 302 303 306 310 310 308 310 309 311 311 312 312 313 313 312 316 317 319 324 327 328 329 332 332 334 335 335 333 334 333 333 332 331 331 332 331 330 330 330 329 328 327 327 328 328 326 326 326 326 326 327 326 325 325 325 324 323 323 322 321 320 320 319 318 316
295 291 292 289 284 284 287 287 284 288 286 289 289 290 293 295 294 293 290 294 291 294 295 295 296 294 293 293 294 291 295 298 301 304 305 306 307 307 308 307 308 308 309 311 314 314 313 314 315 316 320 322 321 325 326 330 332 334 334 333 334 333 332 330 330 330 329 329 328 328 328 327 326 326 326 327 327 326 326 325 326 327 327 326 324 323 323 322 321 320 319 319 318 318 317 316 315
300 292 287 287 285 284 283 289 287 283 287 289 293 292 294 296 292 289 294 294 294 293 297 295 297 296 291 294 293 293 296 298 301 303 302 304 305 306 305 306 307 307 307 308 312 313 314 313 314 314 315 317 319 321 323 326 327 330 332 332 332 332 332 331 330 329 329 328 328 328 326 325 324 325 325 326 326 324 324 324 325 325 325 324 323 321 321 319 319 317 317 317 317 316 315 314 313
297 291 290 291 284 285 285 285 285 287 289 290 292 289 292 292 291 295 294 296 294 295 295 297 298 296 294 295 296 297 294 299 300 301 302 302 302 302 304 305 305 305 306 308 310 311 312 312 312 313 314 315 317 319 320 321 325 325 328 329 329 330 330 329 329 328 326 325 325 324 322 318 318 318 320 320 322 322 322 320 323 323 323 322 321 320 319 318 317 315 315 314 314 313 313 312 311
295 293 290 282 286 284 285 286 286 286 287 287 289 292 295 293 292 292 292 294 296 292 295 294 298 298 294 293 294 294 296 302 301 300 301 300 302 301 302 302 303 303 306 307 308 310 310 311 311 311 311 312 316 317 317 318 321 322 323 324 325 327 327 327 327 324 319 318 317 316 314 309 307 308 309 309 315 310 317 319 322 322 322 320 320 319 318 317 316 314 313 311 309 307 305 306 307
299 291 285 284 284 284 286 288 288 291 291 291 292 290 293 291 290 295 294 294 292 291 291 293 293 293 294 292 295 296 298 299 299 302 301 300 300 300 302 303 303 307 307 307 307 309 310 310 311 310 310 310 312 313 314 314 316 320 315 316 318 322 322 321 318 312 313 308 311 308 304 306 303 301 303 310 306 309 312 317 320 321 320 318 318 318 317 316 315 313 312 310 308 305 301 290 293
293 286 285 287 283 289 291 288 290 290 292 290 290 289 291 294 294 293 294 290 290 292 292 291 294 296 294 293 296 297 298 298 299 302 300 300 300 302 304 304 304 304 306 306 308 308 309 309 309 310 310 309 309 309 311 311 312 312 311 313 314 317 316 314 310 309 305 304 301 300 302 301 299 299 301 304 305 310 310 315 318 319 317 316 316 315 315 314 313 312 310 307 305 300 291 289 289
294 290 287 285 288 289 290 291 292 292 293 294 293 291 289 291 293 293 294 292 289 291 293 291 292 296 297 294 294 296 297 298 299 301 301 301 301 303 303 304 304 305 308 308 308 307 307 308 309 309 309 307 308 308 308 309 310 309 311 311 312 311 309 308 305 303 302 300 298 297 297 298 298 298 307 309 309 304 308 313 315 315 315 313 312 310 313 311 310 308 306 303 298 293 289 289 288
294 292 288 290 288 290 294 292 294 293 292 292 291 289 289 291 290 292 290 292 294 294 295 296 297 296 297 294 294 295 297 296 297 299 300 301 301 302 304 305 306 307 307 305 304 306 306 307 308 308 308 307 307 307 308 308 307 307 307 307 308 306 305 303 302 300 299 297 295 296 295 297 297 299 298 298 297 296 294 294 296 295 295 296 299 291 291 293 290 288 290 292 289 290 289 289 289
294 295 294 292 289 291 295 292 291 291 289 291 288 289 296 291 289 290 292 292 295 296 294 295 297 299 297 295 294 295 296 296 297 298 299 300 300 300 302 303 303 300 302 304 306 306 306 307 307 307 306 306 306 307 307 308 306 306 305 305 304 304 303 301 299 298 296 295 294 295 296 296 297 296 294 294 293 292 290 289 290 290 290 291 292 288 288 288 288 288 289 289 288 288 288 288 289
293 293 294 295 291 294 293 292 290 290 291 290 291 293 290 291 293 288 291 294 299 301 295 294 296 297 296 295 294 294 295 296 296 297 299 299 299 300 301 302 302 302 301 304 305 305 305 305 306 306 306 305 304 305 305 305 305 305 304 303 304 301 299 299 297 295 295 294 294 295 295 295 295 293 292 291 290 289 288 287 288 288 288 287 289 288 288 288 288 287 287 287 287 287 287 287 287
294 293 289 293 294 295 296 297 293 290 291 294 292 289 291 293 293 289 292 296 299 300 296 295 294 292 293 293 294 296 296 296 297 298 299 300 300 301 301 301 302 301 299 301 302 303 303 304 305 305 306 305 304 303 304 304 303 303 303 303 303 302 299 299 296 294 294 294 294 295 295 295 294 292 291 290 289 287 288 287 287 287 287 287 289 288 288 287 287 286 287 286 287 287 287 286 286
293 293 292 293 292 293 294 292 291 290 291 293 290 292 296 295 293 290 292 295 298 298 298 295 295 292 291 293 294 295 296 296 297 298 299 299 300 300 299 298 297 298 299 300 300 300 301 303 304 305 306 305 304 303 303 303 302 301 301 301 301 302 299 299 296 294 293 293 293 294 295 293 291 291 290 289 287 288 287 287 286 286 287 287 288 287 288 287 287 286 287 286 285 286 286 286 286
293 296 293 290 291 291 292 291 289 289 292 289 291 292 294 293 290 291 296 297 299 298 296 295 292 290 291 293 294 295 295 296 297 297 298 299 299 297 298 298 298 297 299 299 299 299 300 301 302 304 305 305 304 302 303 302 301 301 300 300 300 300 298 297 295 294 293 293 293 294 294 293 291 291 290 288 287 287 286 286 287 287 287 287 287 287 287 286 286 285 285 285 285 285 286 288 286
290 291 291 292 293 291 290 290 289 288 287 286 291 293 294 290 291 293 293 295 294 293 292 289 289 291 292 292 293 294 295 296 297 298 297 296 297 297 298 298 298 299 298 298 298 298 299 298 300 302 304 304 303 302 302 302 301 301 300 299 299 298 297 295 295 294 293 293 293 293 293 293 291 290 289 288 287 286 286 286 286 286 286 286 287 287 286 286 285 285 286 285 285 284 285 286 285
290 290 289 290 289 289 289 287 290 290 292 288 292 293 293 288 288 293 297 293 291 293 292 292 289 291 292 291 291 293 294 296 297 295 297 296 297 298 298 298 298 298 297 298 299 298 297 298 298 300 302 303 302 301 302 301 300 300 299 298 298 297 295 294 294 294 294 293 293 293 292 291 292 289 289 288 287 286 286 285 285 286 286 286 286 286 286 286 285 285 285 285 284 284 285 284 285
290 290 290 290 288 291 293 291 292 288 290 287 289 288 289 288 288 295 297 295 294 291 292 293 293 293 292 291 291 291 293 295 294 295 297 299 300 299 299 300 300 299 299 299 298 297 297 297 297 298 300 301 301 301 301 301 300 299 298 297 297 296 295 294 294 294 293 293 293 293 292 291 292 290 289 289 290 286 285 285 285 286 286 286 286 286 286 286 286 286 285 285 284 284 284 284 285
290 287 286 290 289 289 291 288 285 288 289 286 289 285 280 289 293 295 296 292 290 289 292 294 294 294 294 292 291 292 292 292 294 296 298 298 299 299 299 300 300 299 299 299 297 297 298 298 298 298 298 299 300 300 300 299 299 298 298 296 296 295 295 294 294 294 293 293 293 292 291 291 291 289 289 288 288 286 285 285 285 285 285 285 286 286 285 285 285 284 285 285 288 284 283 283 283
290 286 287 284 284 286 289 289 286 288 288 288 289 286 286 291 294 296 294 291 290 291 293 293 293 293 293 294 292 292 293 293 294 296 297 298 299 299 299 299 299 299 299 297 297 298 298 298 298 297 298 297 299 299 299 298 297 297 296 295 295 295 294 294 294 293 293 292 293 292 291 291 290 289 289 289 287 286 285 284 284 284 285 285 285 285 285 285 285 284 283 282 282 282 283 285 282
282 286 282 278 283 283 290 289 288 289 287 286 289 284 288 291 294 296 289 288 287 289 291 292 293 293 293 293 293 292 293 294 294 294 295 297 298 299 299 299 299 298 299 299 298 298 297 297 297 297 297 297 297 298 298 298 297 296 295 296 294 294 294 294 293 293 293 292 292 292 291 291 290 289 289 288 288 286 285 284 284 284 285 285 285 284 285 285 284 284 284 282 282 282 283 281 282
279 284 283 285 281 284 285 291 286 289 287 288 290 288 284 286 291 293 290 291 287 289 290 291 292 292 292 293 293 294 294 295 294 293 295 295 296 298 299 299 299 299 299 299 298 297 297 296 297 297 296 297 297 297 297 296 295 294 294 294 293 293 294 293 293 292 292 291 291 292 291 291 290 289 289 288 288 287 286 284 283 284 285 284 284 283 284 285 284 284 283 284 282 282 281 281 281
283 281 282 281 283 284 283 286 292 285 289 285 287 285 288 291 291 292 293 290 287 287 290 292 293 294 294 293 292 293 294 295 297 297 295 294 295 296 298 300 299 299 299 299 299 298 297 296 296 296 297 297 297 297 297 296 294 293 293 292 293 292 293 293 292 291 291 291 291 292 291 291 291 289 289 288 288 287 286 285 284 284 285 284 283 283 283 284 282 282 282 282 281 281 280 280 281
282 281 280 282 280 282 285 282 285 285 287 285 283 285 287 290 291 292 293 293 292 292 293 293 293 294 294 294 294 294 295 295 297 299 299 296 294 295 296 297 297 297 298 298 298 298 297 296 296 296 296 296 296 297 297 296 294 292 291 291 291 291 291 291 291 290 291 291 291 291 291 291 291 289 289 288 287 287 286 285 284 284 284 283 283 283 283 283 282 281 282 282 281 281 281 280 281
286 286 285 281 282 283 282 287 290 288 288 284 284 287 289 290 290 292 293 294 293 293 294 293 293 293 294 294 294 295 295 296 298 299 299 296 295 295 294 295 296 297 297 297 297 297 297 295 295 295 296 296 296 296 296 295 293 292 291 289 289 291 291 291 290 291 290 291 291 291 291 291 291 289 288 288 288 287 286 285 284 284 284 284 283 283 283 282 282 282 281 282 282 281 281 280 280
285 284 282 283 284 285 286 288 289 285 284 285 288 288 288 288 290 291 293 293 292 293 293 294 294 295 295 295 295 295 295 296 299 299 298 296 295 294 294 293 294 295 296 296 296 296 296 296 295 294 295 295 295 295 295 294 292 291 291 291 291 291 291 291 291 291 291 291 291 291 291 291 290 289 288 288 287 288 286 284 284 284 284 284 284 284 284 282 282 282 283 282 280 279 280 279 280
285 284 281 284 282 284 288 288 290 284 284 281 283 287 288 289 291 292 293 292 291 292 293 294 295 295 295 295 295 296 297 298 297 297 297 294 293 292 292 292 293 293 294 295 296 297 297 296 295 295 295 295 295 295 295 295 294 294 293 292 292 292 291 291 291 291 291 291 290 290 290 290 290 289 289 288 287 287 285 284 284 284 284 284 284 283 282 283 283 282 282 280 280 278 279 279 280
284 285 284 282 284 286 288 289 291 287 283 285 285 285 287 288 290 292 292 292 294 294 294 295 295 295 296 296 296 297 296 296 296 296 296 293 292 291 291 292 293 294 295 295 296 296 296 295 295 295 294 294 295 295 295 295 295 294 294 293 293 291 292 292 291 291 291 290 289 289 290 290 289 289 288 288 287 287 286 285 284 284 284 284 283 282 282 281 282 282 282 281 279 280 280 280 279
282 283 280 283 285 282 284 284 282 282 285 285 285 285 287 289 291 292 293 293 293 294 294 295 296 295 295 296 297 295 295 296 296 296 296 293 291 291 290 290 292 292 293 293 294 295 296 295 295 294 294 295 295 295 295 295 294 293 291 289 290 290 289 290 289 289 289 289 288 289 289 289 289 289 288 288 288 287 286 285 284 284 283 284 284 283 282 281 281 282 281 281 281 279 278 279 281
283 284 284 284 284 286 285 284 283 283 284 281 283 286 289 288 288 289 291 292 291 293 293 294 295 296 296 296 295 295 295 296 296 296 296 295 292 291 290 291 290 291 293 293 294 295 296 295 295 294 294 294 294 295 295 294 293 290 289 288 288 287 287 288 287 286 288 289 289 288 289 289 289 289 288 288 288 287 286 285 284 284 283 283 283 283 282 282 282 282 282 280 280 280 279 278 280
285 284 285 287 288 286 284 285 283 280 281 280 281 283 286 284 287 288 289 286 287 289 290 291 293 294 294 292 293 294 294 294 295 295 295 295 293 291 289 288 289 291 292 294 294 295 295 295 294 294 294 294 294 294 294 293 293 291 289 289 287 288 287 286 288 288 287 288 289 289 288 289 288 288 288 287 287 287 286 285 284 284 283 283 283 283 282 281 281 282 282 281 280 279 280 278 277
283 282 285 288 287 285 283 283 282 277 276 282 281 279 281 282 284 286 285 284 288 288 288 291 293 293 293 292 293 293 293 294 291 292 293 292 292 291 290 289 290 291 292 293 293 293 294 294 294 294 294 293 294 293 293 293 292 291 291 291 291 290 289 289 290 290 289 290 290 289 288 288 288 288 287 287 287 287 286 285 284 284 284 283 284 282 282 282 282 282 282 280 280 281 279 278 278
282 281 282 284 283 283 283 282 283 281 280 282 283 281 278 282 284 287 288 286 287 289 291 291 292 292 292 292 293 292 294 292 292 292 291 291 290 290 293 292 290 292 292 291 292 292 293 293 292 293 293 293 293 293 293 293 292 291 291 291 291 290 291 290 290 290 290 289 288 288 287 287 288 288 287 287 287 286 286 285 284 284 283 283 283 282 282 282 281 281 282 280 279 281 279 280 278
281 284 282 283 283 283 282 282 280 278 278 279 280 282 279 279 284 282 285 284 286 287 289 291 293 293 292 293 293 293 294 291 290 291 291 291 290 290 290 291 291 290 290 291 291 292 292 292 292 292 292 292 292 292 293 293 293 292 291 291 291 291 291 290 289 289 288 288 288 287 287 287 287 287 287 286 286 286 286 285 284 284 283 283 284 283 282 281 281 281 281 280 279 280 279 278 279
283 282 282 281 281 280 281 279 280 278 276 278 279 282 278 282 288 283 282 284 284 287 290 290 290 291 292 292 293 293 293 290 290 290 289 290 289 289 289 288 288 289 289 289 290 290 290 289 290 291 291 292 292 292 292 292 292 292 291 291 291 291 290 287 287 287 287 287 287 287 287 287 287 286 286 286 286 286 286 285 284 284 283 283 284 283 282 281 281 281 281 281 280 279 278 279 279
283 283 284 282 280 277 277 276 277 276 274 280 281 282 282 280 284 283 283 285 286 287 286 289 289 289 292 292 291 293 293 290 289 288 288 289 288 287 286 287 287 286 286 288 288 288 288 288 288 289 290 291 291 291 292 291 292 292 291 291 291 290 289 287 286 285 285 285 287 286 286 287 286 286 286 285 286 285 285 285 284 284 284 284 284 282 282 281 281 281 281 280 280 280 279 278 281
285 285 279 281 282 276 276 268 275 274 274 279 281 282 283 279 280 282 281 282 281 286 287 289 288 289 290 290 290 290 290 288 286 288 291 290 291 289 286 287 286 286 286 287 287 287 287 288 288 288 288 289 290 290 291 291 291 291 291 291 291 291 290 288 287 286 286 286 287 286 286 286 285 286 286 285 285 285 285 284 284 284 283 283 283 283 282 282 281 281 280 280 280 280 279 279 279
284 281 284 279 274 271 271 271 270 271 277 277 280 281 279 281 287 284 286 287 285 285 287 289 289 289 288 289 290 292 291 286 287 288 287 289 289 290 289 287 285 285 286 286 286 286 286 287 287 288 288 288 289 290 290 290 290 291 291 291 290 291 290 289 288 288 287 287 287 286 286 285 285 285 285 285 285 284 284 284 283 283 283 283 283 282 282 281 281 280 280 280 280 279 279 279 279
283 283 280 277 272 270 270 266 264 268 275 277 277 280 280 286 286 289 292 295 294 290 288 288 289 289 289 290 290 290 290 288 288 286 286 287 288 289 289 287 286 285 285 286 285 286 286 287 287 287 288 288 288 289 289 290 290 291 291 291 291 290 290 289 289 289 287 287 287 287 286 286 286 286 286 286 286 285 285 285 284 283 283 283 283 282 282 281 281 280 280 280 280 280 279 279 279
285 283 285 282 279 271 270 270 277 278 280 277 276 276 275 274 281 283 289 289 284 283 285 287 286 286 286 286 287 287 287 288 286 285 286 287 289 288 288 289 288 285 285 285 284 285 285 286 287 287 287 287 288 288 289 289 290 290 290 290 290 290 290 290 289 289 288 287 287 287 287 287 287 286 287 286 286 285 285 284 284 283 283 282 282 282 282 281 281 280 280 280 280 279 279 279 278
283 282 282 279 282 281 282 284 279 281 276 275 273 277 276 284 285 287 284 285 287 286 286 286 286 286 285 288 290 289 288 288 284 285 285 284 285 286 287 287 287 285 284 283 284 285 286 287 287 287 288 288 288 288 288 289 289 290 290 290 290 290 290 289 289 288 288 288 287 287 287 287 287 287 287 286 286 285 284 284 284 283 283 282 282 282 281 281 280 280 279 279 279 280 279 278 278
282 284 280 284 285 286 282 282 283 279 277 280 284 280 285 289 293 292 286 287 288 286 287 286 287 287 283 286 288 286 285 285 285 287 287 285 284 285 285 286 286 284 283 284 285 286 287 287 287 287 287 287 288 288 288 288 288 288 289 289 289 289 289 289 289 288 288 287 287 287 287 287 286 286 286 286 285 285 285 284 283 283 283 282 282 282 281 280 280 280 280 279 279 279 279 278 278
283 280 284 286 286 285 284 278 277 278 278 281 286 283 284 283 283 284 284 283 285 283 283 281 281 280 281 285 284 284 285 285 283 283 285 288 291 289 287 286 285 286 286 286 286 285 286 287 287 287 287 287 288 287 287 288 288 288 288 288 289 289 289 289 289 288 288 287 286 286 286 286 286 286 286 286 285 284 284 284 284 283 282 282 281 281 281 280 280 280 280 279 279 278 278 278 278
284 283 287 285 281 280 281 276 275 276 276 279 283 285 285 286 287 291 290 292 288 287 284 283 284 285 284 282 283 284 284 285 288 289 291 292 291 290 288 288 288 286 285 285 286 285 284 284 285 285 286 287 287 287 287 287 287 288 288 288 288 288 288 288 288 287 286 286 286 286 286 286 285 285 285 285 285 284 284 284 284 283 282 281 281 281 281 280 280 279 279 279 278 278 278 277 277
286 287 285 286 284 282 278 281 279 281 278 280 280 285 282 289 289 288 286 285 285 286 285 284 286 284 282 283 285 286 288 289 291 291 291 290 289 288 287 287 287 287 287 286 284 283 282 283 283 284 284 284 284 285 285 286 287 287 287 286 287 288 288 288 288 287 286 286 286 285 285 285 285 285 285 285 285 284 284 284 284 283 282 281 281 281 280 280 280 279 279 279 278 278 278 277 277
285 285 282 285 284 285 283 282 280 281 280 280 279 279 285 290 290 289 288 287 286 285 285 285 284 283 284 283 285 288 290 291 290 289 288 288 287 287 287 287 287 287 287 287 287 286 284 283 282 283 284 284 283 284 285 285 285 285 285 286 286 286 286 287 286 287 286 286 285 285 285 286 284 284 285 284 284 284 284 284 283 283 282 282 281 281 280 280 280 279 279 279 278 278 277 277 277
286 287 285 286 283 282 280 278 285 280 280 278 279 277 285 291 295 294 289 288 286 286 284 285 288 293 295 294 289 289 288 287 287 286 286 286 286 286 286 286 287 287 287 287 287 287 286 285 284 283 283 282 283 284 284 284 284 284 284 286 286 285 285 285 286 286 286 286 285 285 286 285 285 285 284 285 284 284 284 284 283 283 283 282 281 281 280 280 280 279 279 279 278 278 277 277 276
Wind_Speed
4 4 2 0 3 2 2 6 0 3 2 4 3 0 2 1 1 4 4 2 1 2 2 2 5 6 5 4 10 5 2 8 8 8 4 2 2 3 6 2 2 5 7 6 5 5 6 10 11 11 13 14 14 15 15 15 14 14 12 12 11 11 11 10 10 10 9 10 11 11 11 11 10 10 10 10 10 10 9 9 10 9 10 10 9 11 14 15 16 14 15 16 15 14 14 13 12
3 3 2 1 0 1 1 1 3 3 4 3 6 2 3 2 1 5 4 6 3 0 2 1 3 0 4 4 2 1 3 6 7 1 3 3 5 2 6 4 4 10 6 5 4 4 4 7 11 10 14 13 13 13 14 13 14 14 14 13 12 12 11 11 11 11 12 12 12 11 11 11 10 9 9 9 9 8 8 8 9 9 10 12 13 12 14 15 14 13 14 13 13 12 12 11 11
2 5 1 3 3 4 2 4 3 1 0 3 7 7 2 1 4 6 9 7 3 2 1 1 1 0 0 1 1 4 7 0 2 2 2 3 2 7 8 5 6 7 6 4 4 4 4 4 8 11 14 13 14 14 14 13 13 12 12 13 13 12 12 12 12 12 12 12 12 11 11 11 10 9 8 8 8 8 8 7 8 10 10 9 10 11 11 13 13 13 12 12 12 12 11 11 11
1 4 2 3 2 3 1 3 3 5 2 5 5 5 3 2 6 7 5 7 3 0 0 1 3 1 2 3 3 2 5 2 5 4 1 4 8 5 10 8 7 6 4 4 4 4 4 5 6 10 13 13 14 13 13 13 13 13 11 13 13 12 12 12 12 12 12 12 11 11 10 9 9 8 7 7 7 7 6 7 7 7 7 7 8 8 11 11 11 12 11 11 12 11 11 11 11
2 2 2 3 3 1 1 0 2 3 3 5 2 3 4 6 7 4 3 2 4 3 0 1 0 1 1 2 0 1 4 3 3 5 2 2 1 5 9 8 6 7 7 5 4 4 4 5 6 8 13 14 13 12 12 11 12 13 12 12 12 12 12 12 12 11 11 11 10 10 9 9 8 7 7 6 6 6 6 6 7 7 8 8 8 11 11 11 11 11 11 11 11 12 12 12 11
3 1 4 1 0 2 5 0 0 3 8 5 1 4 4 6 4 2 6 6 2 3 2 1 1 0 1 3 4 1 3 0 0 1 2 3 4 6 9 8 7 8 7 5 4 5 5 5 6 6 13 13 13 14 13 11 11 12 12 12 12 11 11 11 11 11 10 10 10 9 9 9 8 7 6 6 7 7 7 7 8 8 9 9 10 10 11 11 11 11 11 11 11 11 11 11 12
1 3 5 4 2 4 4 2 5 5 9 7 3 5 7 2 4 1 4 1 1 1 3 1 1 0 1 3 1 4 2 1 2 1 4 1 4 8 9 7 6 8 6 6 5 5 5 6 7 10 9 10 14 13 12 15 12 11 13 11 13 12 12 12 11 11 11 10 10 10 9 9 8 7 7 7 8 8 8 9 9 10 10 10 10 10 11 11 11 11 11 11 11 11 12 12 12
2 1 2 1 1 2 0 2 5 5 5 6 3 4 7 3 1 0 3 1 2 2 0 3 0 2 7 2 2 1 2 3 2 1 1 2 5 8 9 7 8 7 6 5 4 4 6 8 9 9 9 9 11 11 8 9 14 14 12 13 13 13 13 12 12 12 13 11 11 10 9 9 9 9 9 9 8 8 9 9 10 10 11 11 11 11 11 11 11 11 12 11 11 12 12 12 12
5 5 0 3 1 2 1 4 5 3 8 3 8 7 9 5 3 1 4 3 3 1 1 1 4 2 3 4 4 3 5 1 2 3 3 4 7 9 9 9 9 8 6 5 4 4 4 7 9 11 10 10 10 11 12 13 12 12 13 13 13 13 13 12 12 12 10 11 11 12 11 10 10 10 10 10 10 9 9 9 9 10 10 11 11 11 11 11 12 12 12 12 12 12 12 12 12
2 2 2 1 3 3 3 6 0 5 4 3 4 9 6 1 1 4 2 3 5 1 1 2 2 6 1 5 5 5 1 3 2 1 2 5 7 7 7 8 7 8 6 6 4 4 4 7 10 11 9 11 13 13 15 15 14 14 14 14 14 13 12 11 11 11 11 11 11 10 10 11 11 11 11 11 10 10 9 10 10 10 10 11 11 11 11 11 12 12 12 12 12 12 12 12 12
0 5 2 1 1 1 3 7 4 7 4 4 9 10 11 4 3 1 4 3 1 3 2 4 1 6 0 5 5 2 2 2 2 4 4 5 5 8 7 5 5 7 8 5 5 4 4 4 9 9 10 10 12 12 13 14 15 16 15 15 14 14 13 12 12 12 12 12 12 12 12 12 12 11 12 11 11 10 10 10 10 11 11 11 12 12 12 12 12 12 12 12 12 12 12 12 12
1 1 2 1 2 3 4 2 5 9 8 4 4 2 1 3 3 1 2 3 1 2 3 7 1 4 1 2 4 2 4 4 5 1 6 4 5 5 5 4 4 5 6 6 4 4 4 4 4 6 10 8 10 12 11 12 13 15 14 14 15 14 14 13 13 13 13 12 13 13 13 13 13 13 13 12 12 11 11 12 12 12 12 12 12 12 12 12 12 12 12 12 12 12 12 12 12
3 1 5 2 1 1 1 2 6 4 6 4 3 1 1 6 3 3 2 2 0 2 4 11 1 1 3 3 5 5 2 4 4 1 5 6 4 3 3 3 3 4 4 5 5 5 4 5 4 4 6 8 8 10 10 10 10 12 13 15 13 14 14 14 14 14 13 13 13 13 13 13 13 13 13 13 13 13 12 12 12 12 12 12 13 13 13 12 13 13 12 12 12 12 12 12 12
3 5 4 2 2 0 1 4 1 3 5 3 3 3 0 0 3 3 4 1 5 2 2 1 1 3 3 2 8 4 4 3 1 3 4 5 4 3 4 3 3 3 4 4 6 6 5 4 5 4 5 5 5 6 8 9 9 11 11 11 12 12 12 14 14 14 13 13 13 14 13 13 13 13 13 13 13 13 13 13 13 13 13 13 13 13 13 13 12 12 12 12 12 12 12 12 12
1 2 4 2 0 1 3 1 1 2 6 1 2 0 0 5 2 1 5 2 8 4 0 1 4 3 5 5 7 3 1 2 2 4 5 4 4 4 3 3 3 2 3 4 4 5 6 5 5 5 5 5 5 5 4 6 9 9 11 11 11 11 11 12 13 12 11 13 14 12 11 11 11 11 12 13 13 13 12 12 13 13 13 13 13 13 13 13 13 12 12 12 12 12 12 12 13
5 5 3 0 2 1 4 3 0 1 7 2 2 1 1 5 2 1 5 5 2 1 0 4 0 4 2 4 4 1 3 2 3 6 6 5 3 3 2 2 3 3 3 4 5 5 5 5 5 5 5 5 4 4 5 5 7 9 10 10 11 11 11 11 12 11 11 11 11 11 11 8 8 7 10 8 12 13 11 7 12 13 13 13 13 13 13 13 13 12 12 12 12 12 12 12 12
2 4 0 3 5 2 4 3 3 3 5 3 4 1 0 3 1 3 1 0 2 3 1 3 5 0 5 5 1 4 2 4 5 7 6 4 5 3 1 2 3 4 4 6 6 6 6 6 6 5 5 4 5 5 5 5 6 8 8 9 10 11 11 11 11 12 10 10 9 9 9 5 4 4 5 5 7 5 8 10 11 13 14 13 13 13 13 13 13 13 13 13 13 12 12 12 12
1 2 3 2 5 3 6 5 9 1 1 4 3 1 1 6 3 1 1 1 1 3 4 5 4 7 5 1 0 2 4 7 6 10 7 7 5 5 6 6 5 10 8 7 7 6 7 7 7 6 5 5 5 5 4 4 4 6 5 5 6 8 9 10 8 6 7 6 9 7 5 5 5 4 4 6 4 5 6 9 11 13 14 13 13 13 13 13 13 13 13 13 13 12 11 6 6
3 1 2 7 5 8 7 5 6 1 7 4 3 2 2 8 1 2 1 3 1 5 6 2 6 10 6 2 2 5 7 6 8 9 12 13 11 13 12 9 9 6 8 9 9 10 7 6 6 7 6 6 5 5 4 4 5 4 5 5 5 7 6 6 6 6 6 6 5 5 5 5 5 4 4 4 4 7 6 9 11 13 14 14 13 13 13 13 13 13 13 13 12 11 6 6 5
2 4 4 7 8 5 5 4 6 9 2 6 7 4 2 4 1 0 2 6 2 8 10 6 6 12 11 5 3 5 7 8 9 11 13 14 13 13 11 11 11 11 12 11 10 5 7 8 8 7 7 7 7 6 5 5 5 5 6 5 6 6 5 6 6 6 6 6 6 5 6 5 5 4 5 7 7 5 6 8 10 10 11 10 11 8 10 12 13 13 13 11 8 5 5 5 5
1 2 4 5 3 2 6 9 10 8 1 3 4 1 4 6 5 1 2 6 10 11 11 12 12 13 13 6 6 6 8 8 8 9 10 11 11 9 12 14 16 15 9 5 5 9 11 9 7 8 7 7 7 7 6 6 5 6 5 6 6 5 5 6 6 6 5 6 6 6 5 5 5 4 4 4 4 4 4 4 5 5 5 6 7 6 6 6 6 6 6 6 5 5 5 5 4
4 9 5 4 1 2 7 6 6 4 3 3 2 5 9 1 1 4 5 7 14 8 8 11 14 13 9 7 9 5 7 10 11 11 13 15 17 16 11 8 6 4 4 7 13 10 11 10 9 7 7 7 8 8 8 6 6 7 6 6 6 5 6 6 6 6 6 6 6 6 6 6 6 6 4 5 4 5 5 5 5 5 5 5 4 6 5 5 5 5 6 6 5 4 4 4 3
5 3 6 6 6 5 1 2 4 4 1 2 4 5 4 5 7 4 7 12 17 13 6 7 10 9 7 1 5 6 8 12 13 16 16 15 14 14 13 12 10 11 10 12 8 7 7 8 9 8 9 8 8 7 6 7 7 6 6 6 7 6 6 6 6 6 6 6 6 6 8 7 6 6 6 5 6 5 5 5 5 5 6 6 4 7 6 5 6 6 6 5 4 4 4 3 3
3 7 1 6 5 11 8 5 2 3 3 7 4 4 7 9 12 1 8 13 19 19 6 8 8 5 3 5 8 12 15 15 17 18 18 20 20 21 19 17 12 5 4 9 8 9 9 12 10 9 10 9 8 7 8 7 6 7 7 6 6 7 7 7 6 6 6 7 6 7 6 7 8 7 6 6 6 4 5 5 5 5 5 5 4 6 7 5 5 5 5 4 4 3 3 3 3
4 7 4 5 1 7 7 6 5 6 9 7 3 7 18 10 9 3 9 12 16 17 11 8 9 7 6 8 9 10 10 11 13 14 10 11 10 11 7 6 5 7 12 10 9 9 11 11 11 13 11 11 9 8 9 7 7 7 7 7 8 7 7 7 7 6 6 6 6 7 6 8 6 6 7 6 5 5 4 5 5 6 5 6 5 5 6 6 5 5 5 4 4 3 3 3 3
7 13 1 3 4 6 6 5 6 7 6 3 1 14 17 10 7 15 20 17 22 13 10 9 7 7 8 11 12 10 12 14 14 11 17 13 8 8 12 10 9 12 16 10 10 11 8 9 13 15 13 12 10 9 9 8 8 9 8 8 8 7 7 7 6 7 7 7 7 6 7 7 7 8 7 6 6 6 5 4 4 5 6 5 5 6 5 6 6 5 4 4 4 3 3 3 3
3 3 4 6 7 6 5 6 5 4 5 4 7 11 16 2 5 15 6 11 3 3 8 4 3 8 9 9 9 10 11 15 17 14 5 7 9 12 15 11 13 18 9 13 12 11 9 10 12 13 12 10 9 11 10 10 8 9 9 7 7 8 7 7 7 7 7 7 7 7 6 6 6 6 6 7 5 5 5 5 5 4 6 5 4 5 3 5 5 5 5 5 5 5 4 3 4
1 1 5 8 6 7 8 5 11 1 7 9 9 13 10 5 2 18 18 5 1 3 8 9 6 8 10 9 9 8 9 14 9 5 14 10 14 16 15 14 18 14 12 16 13 9 10 14 13 12 13 12 12 12 10 10 11 10 9 8 8 7 7 7 7 7 8 7 7 7 7 7 6 6 7 6 6 6 5 5 5 5 5 4 3 4 5 4 4 3 3 3 3 3 4 3 2
0 2 6 9 5 10 8 6 6 8 6 5 7 2 7 5 8 20 17 6 1 4 9 12 11 11 10 8 8 7 13 11 5 8 16 16 15 11 16 17 17 15 14 14 10 10 15 13 13 14 14 13 14 14 13 12 10 9 9 9 8 8 7 7 8 8 8 7 7 8 7 7 7 8 7 7 6 6 5 5 5 4 4 4 3 4 4 4 5 4 3 3 4 3 3 2 2
1 1 1 11 7 10 6 4 3 7 4 7 6 9 6 12 18 18 11 6 5 5 10 12 11 10 10 8 7 9 10 8 10 15 15 15 14 13 17 16 15 13 11 9 9 15 14 9 10 10 13 15 16 14 12 11 11 10 9 9 8 8 8 9 9 8 8 7 7 8 8 8 7 7 8 7 6 6 6 5 5 5 4 4 4 5 6 5 6 5 4 4 3 3 4 2 3
4 3 1 4 7 10 2 1 3 1 3 9 3 8 7 12 17 21 7 6 6 8 10 12 10 9 10 10 7 9 12 10 15 16 15 15 13 11 15 11 11 13 8 9 16 19 11 13 11 11 14 16 15 15 15 14 11 11 11 10 10 11 9 10 9 8 8 8 7 8 8 8 8 8 7 8 7 7 6 6 5 6 5 4 5 5 5 4 4 5 4 5 3 4 3 3 3
1 4 6 3 5 8 14 6 5 9 1 3 5 8 13 13 16 19 1 1 3 6 10 12 11 10 11 9 9 10 13 10 12 13 15 16 14 13 13 14 12 12 15 16 15 9 14 14 13 13 13 16 17 17 16 14 13 12 11 10 9 10 9 10 9 9 8 7 8 8 8 8 8 8 8 8 8 7 7 7 6 5 4 5 5 4 4 5 4 4 1 3 6 2 3 3 2
3 4 6 10 3 7 9 10 3 8 3 1 10 11 3 8 15 15 7 4 5 6 9 11 13 12 12 10 9 10 13 15 10 13 15 15 13 14 13 14 13 17 16 14 14 13 13 14 15 16 17 20 18 15 13 11 11 11 11 11 12 11 10 10 9 8 8 8 8 8 8 9 9 9 9 9 8 8 7 6 6 5 4 5 5 5 5 4 4 4 1 0 1 4 3 3 2
6 1 7 4 7 4 5 9 9 2 7 4 6 6 13 13 10 10 13 7 3 6 12 14 13 13 14 11 11 13 15 16 19 16 14 13 12 14 15 13 12 13 12 14 14 15 17 14 14 15 14 14 14 15 15 13 11 10 9 8 9 10 10 8 7 8 8 8 8 9 10 10 9 9 9 9 8 8 7 7 6 6 6 5 5 5 5 4 3 3 4 2 2 4 4 3 2
8 5 4 8 4 7 12 3 5 2 1 5 3 10 17 15 13 14 15 14 14 14 15 16 16 15 16 14 14 16 16 17 20 19 15 9 11 12 11 11 10 10 11 13 12 12 10 11 12 14 14 14 13 13 11 10 8 6 5 6 6 7 7 7 7 8 8 8 10 10 11 10 10 10 10 10 9 8 7 7 7 6 6 6 6 6 5 5 4 3 4 4 3 3 4 2 2
15 12 9 3 7 7 6 12 10 6 12 5 8 16 16 14 13 14 16 13 14 19 16 14 13 14 16 16 15 14 15 18 19 19 15 7 7 7 9 8 10 10 10 10 12 12 12 11 11 12 13 13 11 10 10 9 8 9 9 5 6 8 8 8 8 9 8 10 11 11 11 10 10 10 10 10 9 9 8 8 7 7 7 7 7 7 7 7 8 6 4 5 5 3 3 1 1
3 0 4 10 11 11 8 14 11 0 5 10 16 19 16 16 15 17 17 13 10 18 21 19 16 16 16 16 15 16 16 20 19 12 11 6 5 6 7 7 9 9 9 10 12 13 14 16 14 16 13 13 12 12 12 13 13 10 8 12 14 12 12 11 11 11 11 11 11 11 11 10 10 10 9 10 10 9 8 7 8 7 7 7 8 9 7 7 5 5 6 3 4 3 1 1 0
5 6 5 12 5 15 14 10 8 2 1 3 5 16 18 16 15 17 15 12 15 16 23 22 22 18 15 17 19 19 19 12 9 10 12 4 6 6 6 7 6 8 11 10 13 16 15 13 14 14 10 12 13 14 14 14 14 16 18 18 16 13 13 13 13 12 12 10 10 10 10 9 10 10 10 10 9 10 9 9 9 9 9 8 7 4 5 5 5 5 6 4 1 3 2 2 1
6 9 7 7 10 12 13 13 15 5 1 13 7 16 16 11 15 18 16 18 17 14 18 22 20 19 17 17 18 19 12 13 9 11 10 6 6 6 6 7 8 12 10 13 15 12 12 13 14 11 12 13 14 14 13 15 13 11 11 7 10 8 8 8 7 8 8 9 9 9 8 9 10 9 10 11 10 10 10 10 10 9 9 8 8 8 7 7 7 8 8 8 5 1 1 1 1
6 7 4 13 4 2 11 1 3 1 1 10 8 20 20 10 17 23 21 18 15 14 16 20 19 19 21 25 15 9 12 13 14 12 12 7 5 5 4 5 7 6 7 8 9 12 11 12 12 13 13 14 13 15 15 11 9 6 4 3 4 4 5 4 4 5 7 6 8 9 10 11 11 11 11 11 10 10 11 11 9 9 9 9 10 10 9 9 8 8 8 5 6 5 2 2 1
6 10 10 9 8 14 10 6 7 7 5 2 10 15 18 10 12 9 13 9 10 15 14 16 19 21 22 15 11 9 12 15 15 15 12 10 6 6 6 6 4 7 9 10 10 12 10 14 14 14 12 13 12 12 13 10 9 7 6 5 5 5 4 6 5 5 8 8 8 10 12 10 11 11 11 12 11 12 11 10 10 10 10 9 9 9 10 11 11 9 10 8 9 8 7 2 1
9 7 9 17 15 11 8 9 7 6 8 4 4 11 16 3 10 9 8 1 3 8 10 16 22 21 15 8 11 10 9 10 11 13 14 10 6 6 4 4 5 8 10 10 9 11 9 10 10 10 9 9 11 12 12 11 12 12 11 10 10 10 9 9 14 17 12 13 16 10 10 12 12 12 11 12 12 11 11 11 11 11 10 10 9 9 8 6 8 10 11 10 9 4 7 6 3
7 7 14 16 13 9 7 12 4 5 3 1 2 3 21 4 3 7 6 4 10 7 7 17 18 15 10 8 10 10 11 8 5 8 7 7 6 6 6 6 8 9 12 7 6 8 9 8 10 12 12 10 10 11 14 12 12 12 16 16 15 16 17 14 11 9 12 11 7 10 10 9 11 12 12 12 12 11 11 11 11 11 11 10 9 8 8 11 10 10 7 7 8 6 6 6 9
8 2 5 6 6 7 8 4 6 8 1 4 2 4 5 24 2 8 8 7 10 11 14 15 15 13 10 11 10 9 11 6 7 7 4 3 5 6 9 7 6 11 8 4 6 5 9 10 10 11 10 10 10 11 14 15 15 14 14 14 13 13 15 13 12 11 10 8 9 9 8 9 10 10 11 11 11 12 11 11 11 11 11 10 10 10 11 9 7 5 6 6 5 6 8 8 8
4 1 7 4 7 7 3 5 6 2 4 9 1 2 4 10 6 4 6 1 9 12 14 17 13 10 10 12 9 11 9 5 4 6 6 6 7 7 6 7 6 7 5 6 6 5 5 6 8 9 11 11 11 14 15 16 14 15 15 14 14 13 12 8 7 6 8 9 11 9 9 9 9 10 10 11 11 12 11 12 12 12 11 11 11 10 8 9 11 10 9 9 9 7 7 4 8
4 4 6 6 5 4 4 4 3 1 1 11 7 6 5 18 13 5 4 1 6 12 15 8 7 8 10 10 10 10 8 3 3 2 4 6 5 6 5 5 6 6 4 3 3 3 4 4 6 9 11 11 11 13 14 15 15 13 14 15 17 13 9 6 7 8 8 9 11 11 11 10 11 10 10 11 11 12 13 12 12 14 13 12 11 11 10 10 10 10 11 10 8 8 6 6 9
4 3 3 3 6 3 3 5 2 2 5 11 14 11 7 13 5 8 8 7 7 4 6 6 5 5 10 9 8 8 7 5 4 1 2 5 5 5 4 4 5 4 3 1 2 3 4 5 5 7 8 7 9 13 14 16 15 14 15 16 17 15 12 9 9 9 8 8 11 11 11 11 9 11 10 10 13 13 12 12 13 12 11 11 11 11 12 12 11 10 9 8 8 10 8 8 4
4 2 2 2 4 5 2 3 2 3 10 3 13 15 11 12 3 4 4 4 3 2 2 11 7 6 8 6 5 6 2 1 3 6 10 9 9 6 4 5 4 4 2 1 1 3 4 5 5 7 6 7 7 10 12 13 13 14 13 14 15 14 13 12 14 14 14 15 13 13 10 8 10 9 10 10 11 12 11 11 10 11 11 11 13 12 11 11 9 8 8 9 9 8 6 7 7
3 3 1 1 6 5 2 2 1 5 11 2 1 4 2 21 10 2 8 7 6 8 7 6 8 9 8 7 7 8 5 3 3 2 5 6 6 8 7 5 4 5 4 3 3 4 4 4 6 8 9 7 9 10 13 14 14 15 16 15 13 12 12 13 14 13 12 13 13 12 12 13 11 10 12 13 13 13 11 11 12 12 11 12 11 10 10 10 10 10 10 10 9 11 11 10 9
7 6 6 5 4 4 6 4 2 6 6 4 4 3 9 11 7 9 16 19 13 5 8 9 8 9 8 7 9 10 10 7 5 2 4 4 5 7 6 4 4 4 4 4 3 3 4 4 5 7 8 6 6 8 11 13 16 15 13 13 12 12 13 13 12 12 12 11 11 13 14 13 14 16 15 16 14 14 13 14 12 12 11 9 10 11 10 10 10 10 10 11 12 10 7 9 9
13 3 12 11 9 4 4 4 9 8 5 1 3 4 9 1 5 2 9 5 3 3 4 6 6 6 5 7 7 7 6 7 4 5 4 5 7 6 7 9 8 4 3 3 4 4 4 5 6 8 8 9 10 11 10 14 14 12 11 11 11 11 13 11 12 11 11 12 11 12 12 12 13 13 13 12 10 14 14 12 13 13 12 11 10 10 9 9 10 9 9 10 8 7 8 8 7
3 2 3 1 10 5 10 8 4 5 2 2 2 8 3 7 0 7 5 7 7 5 5 2 5 4 4 6 8 7 6 5 4 4 4 5 6 6 6 6 5 4 3 4 5 4 5 7 7 9 11 10 11 11 12 12 11 9 10 12 13 11 10 10 9 9 11 12 13 13 13 13 12 11 10 10 12 13 14 14 12 13 12 12 12 11 10 10 10 10 9 8 10 6 9 9 8
3 6 7 9 1 4 4 5 1 2 1 13 4 7 10 8 15 10 3 2 5 5 6 4 6 6 5 7 6 6 5 6 6 6 7 5 5 5 4 5 5 4 3 4 5 5 6 6 7 9 10 8 10 11 10 7 7 8 10 10 9 10 11 12 13 12 11 9 9 10 10 11 9 9 10 10 11 12 12 13 13 13 13 13 12 12 12 11 10 10 10 10 11 8 8 10 7
7 3 7 1 2 3 3 5 2 3 10 11 6 16 13 6 14 4 5 5 3 5 4 4 5 4 4 6 4 4 6 6 6 6 6 6 2 1 1 1 2 5 6 6 6 4 4 5 6 8 7 10 8 7 8 8 8 9 9 10 10 10 10 10 8 8 8 8 9 10 10 10 13 11 10 9 11 12 13 14 13 13 12 12 13 12 12 12 11 10 11 10 9 8 9 7 7
2 3 2 1 5 4 1 4 5 6 10 7 7 14 16 11 19 11 11 16 8 6 5 4 4 3 3 3 4 4 4 5 6 7 9 9 10 12 11 11 12 10 7 6 7 8 5 5 6 5 7 6 5 5 6 7 8 8 8 9 10 11 10 10 9 6 6 9 10 11 12 12 8 10 11 12 12 13 13 13 13 13 12 13 12 12 12 12 12 11 10 10 8 9 9 9 8
1 1 2 1 2 3 2 6 1 1 11 6 10 10 13 7 12 7 1 1 5 6 6 4 6 6 5 4 5 7 9 8 7 8 9 12 15 16 16 17 15 13 10 6 3 2 3 4 4 5 5 5 5 6 5 8 9 8 8 6 8 9 9 9 7 7 8 10 11 9 9 8 12 9 11 12 13 14 15 15 14 14 14 13 13 12 13 12 12 11 11 10 9 10 10 10 8
2 0 4 2 1 2 1 2 3 6 9 9 9 11 7 9 3 1 1 1 2 3 4 6 5 4 5 5 4 7 8 14 16 16 18 20 19 18 17 14 12 10 10 11 12 11 8 5 4 4 6 6 5 5 6 7 5 6 5 9 8 7 9 7 7 8 9 9 8 9 9 9 4 11 11 13 14 15 15 15 14 14 15 14 14 14 12 12 12 12 11 11 10 11 12 9 8
6 8 9 10 8 7 10 11 3 2 6 10 11 16 6 7 9 11 1 0 5 4 0 5 8 13 15 13 11 16 18 17 16 16 16 16 15 16 15 15 15 15 15 15 14 13 13 11 7 5 4 5 5 6 5 6 5 5 7 8 9 6 7 7 9 10 11 10 9 10 9 7 12 10 9 13 13 13 13 14 14 15 14 14 14 15 14 13 14 14 13 10 11 13 12 11 10
Wind_Direction
330 332 312 98 61 98 51 3 342 313 43 262 316 265 263 306 245 333 242 343 233 237 204 87 117 137 169 205 198 192 206 134 207 126 215 237 299 247 218 251 262 146 161 169 174 176 177 164 169 166 167 167 166 166 165 163 163 164 162 163 165 165 164 159 156 154 145 140 132 130 124 121 118 118 118 110 103 99 94 90 86 85 83 81 92 90 88 83 76 73 71 67 63 62 62 64 63
301 325 14 356 42 49 242 116 99 351 37 0 252 119 253 284 27 224 242 196 203 287 324 213 161 120 67 71 170 95 277 215 179 188 275 239 288 214 210 219 190 164 166 174 170 175 168 175 166 165 161 161 162 163 163 161 163 162 161 161 163 163 162 156 151 143 138 138 134 132 126 123 120 118 117 114 107 107 107 97 90 92 92 89 93 95 93 87 84 78 75 77 75 72 71 69 65
354 7 339 26 22 77 92 37 283 62 63 280 274 212 326 276 217 255 226 217 218 272 280 47 111 264 232 335 338 164 256 329 304 288 225 335 124 214 204 191 189 168 164 168 168 169 164 168 165 167 162 158 160 160 160 160 161 160 158 158 156 155 153 148 144 143 140 137 137 135 131 127 124 125 128 129 128 125 113 112 103 98 97 97 93 98 94 85 86 83 83 81 80 76 71 67 62
81 35 129 62 242 33 64 25 92 131 181 214 307 266 202 202 246 230 249 253 246 323 269 187 152 227 167 250 222 39 272 292 197 166 263 215 211 179 177 176 181 160 157 165 172 169 157 166 157 170 165 166 167 163 162 161 159 159 156 158 154 152 153 151 148 150 148 148 141 137 138 130 133 137 135 133 125 129 136 137 129 114 111 109 104 90 82 82 80 80 81 82 81 78 72 67 63
58 348 80 105 109 8 98 142 147 107 245 192 197 268 243 229 250 278 280 286 264 189 109 173 56 272 187 197 204 195 250 246 285 195 257 251 243 164 159 167 166 160 167 172 167 166 166 161 175 178 171 177 172 164 173 169 166 164 166 165 160 161 159 157 155 157 154 156 153 148 136 147 142 137 139 136 137 130 135 141 133 126 120 113 108 92 89 84 82 80 78 77 75 72 70 68 66
56 40 356 79 347 154 56 9 258 205 223 151 219 260 222 227 224 258 279 295 253 193 173 54 186 332 317 222 187 211 203 67 163 241 175 258 191 162 158 160 162 165 170 168 168 163 167 173 180 187 182 182 184 185 168 183 176 177 179 174 174 169 171 171 171 167 168 163 154 155 150 158 158 156 144 142 143 141 139 135 138 131 119 107 98 94 92 91 91 88 84 80 77 74 71 70 66
277 42 356 24 26 52 181 186 233 210 266 161 231 260 269 256 226 303 317 335 167 239 177 227 78 5 338 300 316 241 189 123 100 243 159 285 164 158 153 161 161 169 166 171 168 167 172 175 184 189 201 192 190 207 186 179 182 193 202 190 202 172 177 179 180 180 177 176 167 168 168 164 164 162 163 153 159 154 147 143 130 118 108 103 100 97 95 95 94 92 88 85 80 77 74 70 66
74 127 319 106 225 22 305 245 259 151 273 171 233 247 274 291 186 67 271 97 281 187 302 316 56 121 250 31 235 279 318 216 207 114 224 168 153 158 156 158 164 174 172 172 174 176 177 177 188 192 201 201 194 199 207 214 190 198 206 200 203 200 191 185 189 189 192 183 188 183 169 181 169 168 163 162 162 163 156 133 121 115 110 105 103 102 101 101 100 98 95 89 84 80 76 71 68
360 85 277 73 189 46 42 253 262 222 281 286 270 228 267 257 217 283 275 228 320 270 299 190 221 94 255 0 230 261 288 287 304 259 167 156 167 164 160 168 170 169 177 174 178 179 181 185 189 191 197 197 199 192 206 211 223 201 203 205 204 206 199 197 199 200 199 199 192 186 183 180 170 168 170 167 168 161 142 132 124 117 111 108 105 103 103 103 101 98 94 90 88 84 80 75 71
35 62 282 140 122 260 353 289 129 240 224 244 266 279 267 246 208 190 229 297 219 7 267 277 172 221 310 281 300 299 247 343 304 73 180 174 169 164 167 174 170 163 168 176 180 183 183 192 190 197 194 197 196 198 205 205 205 205 198 201 202 202 200 193 195 190 193 188 183 177 172 165 165 164 168 166 162 147 137 131 124 118 113 108 105 103 104 103 102 100 98 95 91 88 84 80 76
331 15 155 101 23 293 236 275 263 308 277 307 289 258 256 245 195 208 194 238 266 211 324 175 56 242 23 266 220 246 319 339 139 221 188 175 167 171 167 170 162 166 168 176 179 179 185 191 194 198 192 200 192 195 202 200 200 201 197 199 195 195 194 189 186 184 183 180 178 175 170 166 165 165 161 161 154 146 139 133 126 120 117 116 112 109 105 101 99 98 96 94 92 90 87 84 80
327 30 4 100 210 181 250 232 281 279 289 319 276 332 319 156 120 164 219 231 297 260 212 151 242 134 199 312 289 288 315 303 210 247 162 158 167 167 158 154 152 171 167 172 176 185 188 188 191 210 188 200 196 194 196 197 197 199 199 196 193 193 189 186 184 182 182 180 179 176 172 168 166 164 162 157 151 147 142 136 131 128 124 121 118 115 112 109 105 100 97 94 92 90 88 86 82
106 102 79 103 235 162 226 296 253 307 317 293 237 308 343 124 180 224 212 225 131 356 291 214 91 116 277 202 255 314 329 268 194 161 153 149 153 134 126 137 152 161 166 168 171 191 197 194 191 203 189 195 196 192 196 198 198 193 197 193 193 191 189 188 186 185 183 181 180 177 171 169 166 164 160 156 152 149 146 140 134 132 129 125 122 119 114 110 106 103 98 95 92 90 87 84 82
115 180 127 258 70 133 197 257 293 330 299 249 258 293 281 176 237 195 131 194 242 183 233 210 136 136 261 352 304 330 259 311 144 124 118 120 114 114 133 136 149 167 182 176 186 187 194 198 195 197 189 188 190 192 194 191 198 194 194 194 188 192 188 187 187 186 184 182 180 177 171 167 164 161 159 157 153 149 142 140 137 134 131 126 121 116 113 110 107 103 100 97 94 90 86 84 80
130 157 84 124 256 35 240 198 214 131 268 250 270 14 328 253 148 143 178 210 268 207 262 150 182 112 250 159 282 253 259 312 121 107 104 96 98 110 119 134 162 184 205 208 206 189 197 194 197 194 191 182 184 184 188 192 192 194 192 190 191 183 181 183 185 185 180 182 178 168 162 161 161 158 158 156 152 144 141 140 139 135 133 127 121 118 115 112 108 103 98 94 90 86 83 79 76
139 88 75 137 277 138 272 196 43 117 264 204 282 289 320 281 184 149 248 179 249 307 132 223 287 202 220 166 224 237 286 133 134 108 105 100 86 80 115 143 189 216 222 219 216 213 200 194 198 196 190 184 176 182 185 186 189 193 194 187 182 176 181 182 181 175 175 175 169 156 153 151 148 149 150 147 144 146 143 141 141 138 133 128 125 121 118 114 111 107 102 96 90 83 78 75 73
77 81 11 39 282 157 253 176 158 246 247 278 283 284 103 291 283 240 83 68 260 269 242 228 200 78 207 209 223 270 268 131 115 110 107 117 129 142 154 219 228 241 228 225 216 210 207 198 199 194 194 181 174 175 182 183 188 185 188 180 178 178 183 176 172 166 166 160 148 144 134 123 121 122 117 126 127 124 139 142 139 139 132 129 124 120 117 114 111 107 103 97 90 81 71 64 61
60 116 120 260 206 157 211 190 191 218 223 276 322 159 334 299 316 265 59 337 245 286 268 280 293 256 219 226 335 131 144 140 148 142 162 161 165 178 201 212 195 215 209 218 221 212 203 206 196 191 186 190 173 176 179 182 184 179 176 175 173 175 176 171 162 148 141 133 132 129 129 130 125 123 126 121 127 129 126 135 139 136 131 127 124 121 117 114 109 105 100 94 87 80 72 64 50
110 122 112 234 188 238 163 203 213 145 253 229 266 267 223 255 167 293 347 283 308 300 267 262 265 275 278 274 123 134 153 161 168 178 173 179 186 192 200 195 210 217 221 217 217 206 204 196 194 193 191 179 175 177 178 182 182 174 177 173 173 171 170 155 146 144 139 138 134 137 135 131 133 135 135 137 137 132 129 131 133 135 133 129 125 120 117 112 108 104 98 93 85 78 71 69 65
220 125 228 246 213 234 226 195 227 201 255 294 299 301 164 254 136 309 229 273 321 257 262 285 249 257 253 225 141 168 177 184 190 184 192 197 197 198 196 200 209 217 217 209 206 191 196 201 200 193 185 178 176 180 175 181 182 174 175 172 170 163 154 149 147 145 144 143 144 143 139 139 135 142 149 142 132 124 119 112 115 113 107 96 96 94 99 104 101 97 94 86 78 75 77 68 73
264 104 202 232 213 188 252 207 234 242 192 259 255 319 316 271 228 145 216 338 266 246 234 232 246 245 250 231 194 175 193 195 202 209 207 210 213 215 208 203 200 206 208 178 181 200 201 200 192 197 185 180 179 178 178 184 178 170 177 174 166 159 151 150 152 149 151 148 150 147 145 141 144 150 137 124 118 116 107 104 102 108 108 108 103 103 95 89 83 84 75 73 69 73 70 59 63
116 210 228 200 124 215 244 218 215 203 181 210 301 324 263 14 102 217 194 225 267 240 239 220 233 246 244 234 213 185 194 200 206 207 213 211 208 213 217 233 245 229 169 192 208 200 198 196 194 188 183 187 188 181 182 176 165 181 182 179 164 162 160 160 158 159 156 159 157 153 146 142 149 143 141 140 135 133 131 136 133 130 125 123 120 117 107 102 89 87 91 85 72 73 75 70 60
240 269 257 228 208 239 237 216 217 182 225 200 300 250 330 270 278 193 171 213 254 255 227 221 230 232 241 221 143 196 206 210 206 209 210 215 222 224 219 218 207 207 200 216 202 204 191 193 195 183 192 186 193 181 173 174 186 184 177 174 169 178 165 165 174 172 169 164 165 161 153 156 154 154 153 154 153 148 148 151 150 146 138 133 141 120 105 97 102 100 96 94 83 78 69 62 63
224 258 231 280 201 229 246 269 161 222 224 255 213 339 289 280 292 172 190 232 245 266 236 251 248 241 206 194 195 207 207 206 212 213 207 210 208 211 210 209 212 215 211 221 202 199 192 197 192 188 195 187 190 182 180 185 184 180 183 177 181 174 169 182 180 179 166 172 173 170 159 159 160 162 166 162 165 153 160 157 149 142 134 126 121 115 118 109 104 103 105 97 96 89 94 84 74
206 267 218 266 170 242 261 254 273 271 260 257 302 282 265 248 248 339 239 243 258 261 265 249 260 256 231 229 227 224 222 226 231 226 229 236 229 233 242 243 220 208 223 211 207 200 200 193 187 196 193 193 188 179 189 187 181 183 183 185 187 179 184 186 178 169 177 177 177 171 162 159 162 163 165 168 153 165 159 154 153 145 133 133 124 116 128 131 124 125 124 125 116 118 121 121 119
206 232 214 279 273 279 267 301 252 248 271 173 245 257 265 275 272 259 253 250 253 261 279 265 262 266 238 232 231 220 224 224 227 227 222 221 226 226 231 216 212 217 219 206 204 211 195 186 193 197 194 191 186 178 194 185 188 189 193 192 185 181 190 181 170 182 182 174 180 179 173 165 170 169 166 161 163 169 165 153 144 145 139 139 133 138 146 137 143 133 129 133 137 146 145 160 136
169 235 238 255 263 290 278 223 259 224 236 165 194 257 268 316 53 282 131 231 246 246 255 288 246 243 243 234 234 227 224 229 221 223 243 225 221 220 227 212 213 224 201 214 209 205 193 186 201 196 194 190 181 191 192 195 185 198 195 189 185 191 180 174 183 185 183 187 181 173 171 169 163 162 162 164 166 162 163 158 153 144 138 151 144 139 138 140 138 146 153 154 158 157 158 161 147
221 223 305 278 278 256 245 248 262 151 279 184 199 247 275 305 145 255 267 238 291 285 285 279 259 255 255 241 235 232 228 238 232 192 226 214 219 215 218 208 218 217 204 218 210 189 188 200 196 192 193 190 187 194 192 194 195 197 191 189 194 187 173 185 186 186 191 188 176 175 172 169 164 164 162 167 166 164 167 165 157 154 162 154 144 138 139 128 132 129 131 142 159 154 136 127 128
223 30 316 288 336 318 269 228 248 157 249 154 173 249 302 276 231 249 249 287 215 269 277 278 274 264 262 251 239 233 229 238 213 217 228 225 225 212 221 214 213 208 217 216 199 186 202 196 191 194 190 190 192 194 195 197 193 191 189 193 189 182 183 184 190 193 192 186 177 176 173 168 169 166 169 169 166 164 161 161 163 171 161 152 137 135 127 122 118 127 138 151 148 149 126 103 117
16 58 190 318 332 302 297 136 19 152 241 150 148 284 215 257 257 259 266 278 276 287 272 267 267 271 271 265 242 246 246 234 222 225 230 229 229 217 221 220 210 210 211 200 185 206 202 190 193 187 190 193 196 195 195 194 194 191 191 189 185 182 188 188 197 193 188 185 181 178 172 173 169 167 162 166 159 159 160 168 170 172 163 151 138 136 139 147 143 144 158 139 126 117 96 68 76
273 251 120 255 3 272 270 149 154 317 192 175 128 252 248 261 270 274 271 217 224 249 262 271 269 270 271 272 262 252 254 222 228 230 233 235 234 232 228 228 206 210 199 196 202 211 181 196 185 193 192 195 193 197 196 198 191 191 188 187 187 187 187 192 193 188 187 186 178 180 177 175 170 168 168 163 164 163 164 171 180 178 158 150 148 156 146 148 145 152 154 123 106 84 84 66 74
343 0 278 328 193 276 292 278 193 236 309 193 136 259 252 251 261 275 337 104 155 226 252 264 269 269 267 270 273 268 262 247 238 237 236 234 229 233 226 228 207 202 205 207 209 189 197 197 190 195 188 195 196 197 197 195 193 191 189 187 186 187 188 193 191 190 187 178 182 179 180 176 172 171 169 166 164 171 171 177 180 162 161 151 152 149 143 153 149 140 154 149 119 88 92 54 42
350 194 281 272 224 263 341 290 184 219 147 263 176 247 291 283 256 267 279 216 191 232 256 259 268 269 272 269 269 272 279 277 250 236 238 232 231 227 229 227 209 210 208 204 201 195 203 196 193 195 193 196 197 196 195 196 191 190 189 189 189 185 191 193 191 182 179 181 180 181 181 180 177 174 172 171 166 170 172 173 170 166 158 156 153 156 155 156 152 148 143 4 87 141 114 113 36
275 107 228 202 248 292 274 305 288 156 171 212 243 239 240 258 276 283 298 268 210 246 263 270 273 273 269 268 264 263 263 266 272 259 240 228 232 224 227 226 218 215 213 208 203 196 201 194 196 198 199 195 193 192 193 191 190 185 187 187 186 190 195 192 184 178 186 182 179 187 181 182 179 176 173 172 171 171 169 167 161 162 158 154 153 156 161 150 146 150 134 51 83 113 119 117 94
235 248 256 278 258 235 254 319 262 63 127 220 291 245 261 264 278 281 269 284 285 269 267 267 269 271 269 262 256 257 258 263 264 265 257 229 225 229 225 224 222 214 212 209 204 205 197 193 195 200 197 192 191 190 186 181 175 174 164 169 180 189 192 190 179 185 186 183 191 187 182 184 179 177 175 171 168 166 164 165 164 166 159 157 155 158 157 160 152 150 147 109 72 84 130 145 139
233 234 252 271 272 248 226 240 263 272 277 277 237 257 264 268 265 268 274 268 276 282 278 272 264 260 265 262 258 258 257 259 257 259 266 252 225 224 221 218 218 213 211 201 203 199 198 194 197 199 197 187 185 178 172 176 171 177 176 161 184 201 191 186 188 192 186 194 196 186 186 184 180 178 175 171 167 165 166 170 168 164 166 161 165 169 176 176 171 154 150 137 122 81 42 67 80
286 74 233 253 258 274 268 269 269 99 312 236 258 265 262 264 265 266 266 276 277 282 281 275 270 262 261 264 262 256 254 249 257 265 270 264 241 227 223 209 214 212 209 200 200 201 198 198 188 200 192 184 180 178 181 178 180 179 183 195 202 192 190 189 192 196 195 199 191 189 185 184 179 175 173 167 172 167 167 162 162 171 170 173 180 190 177 170 166 157 146 131 133 111 78 13 94
246 271 269 265 241 273 255 282 282 59 205 272 219 272 269 266 270 269 270 267 261 256 272 274 270 267 264 265 265 260 255 269 278 282 273 255 239 225 214 208 197 202 217 201 204 204 203 197 197 199 180 186 189 188 185 187 190 188 186 194 194 187 185 188 199 197 199 194 190 189 185 181 177 176 172 174 171 169 167 170 174 177 174 182 183 165 166 166 154 154 156 107 41 131 165 204 216
255 239 263 294 263 263 277 264 277 281 188 278 269 266 266 268 261 264 256 251 249 239 245 262 271 276 271 266 259 264 280 276 281 266 272 253 239 234 212 213 212 212 208 202 209 200 199 199 203 188 187 187 193 189 184 195 193 195 194 193 190 191 203 206 204 194 183 184 184 183 181 180 176 177 176 176 173 177 175 171 181 173 178 171 167 175 174 177 176 173 179 159 136 59 137 198 179
232 246 266 249 261 327 294 214 12 334 215 296 295 290 282 249 252 254 252 251 248 248 246 256 260 263 264 256 261 292 284 284 279 277 280 274 236 241 228 232 225 220 221 217 210 205 202 205 199 191 192 192 190 193 194 191 184 177 170 115 161 148 174 160 156 152 174 164 180 182 189 183 180 182 175 177 179 178 177 180 171 174 180 180 178 175 181 185 179 183 185 184 151 137 178 194 124
203 214 230 262 254 240 240 275 333 312 280 256 316 291 278 208 241 250 268 244 246 254 254 258 263 256 252 273 292 261 270 273 280 288 283 281 274 266 235 240 226 224 223 217 207 205 204 205 198 194 192 192 193 190 187 171 154 143 129 85 101 90 79 145 153 190 186 185 185 194 194 181 183 180 178 182 180 182 181 178 175 179 178 181 179 182 187 191 187 186 180 174 190 160 176 182 164
242 222 200 236 248 271 271 287 353 355 316 349 36 334 302 199 194 219 250 20 237 248 238 251 251 255 267 273 273 273 243 252 262 271 277 291 325 321 306 275 239 235 233 227 211 211 204 203 195 193 190 190 190 186 178 169 175 170 162 163 170 181 186 179 196 198 181 191 202 189 184 188 181 182 180 182 185 179 182 181 179 175 180 180 186 190 185 170 187 188 193 187 192 216 152 156 127
266 266 200 227 241 249 266 277 353 282 239 294 36 104 291 172 203 239 241 215 242 267 222 243 252 262 274 273 261 267 273 278 259 267 295 340 330 321 285 246 236 238 240 225 216 211 205 198 191 191 191 188 184 180 175 174 178 184 187 190 188 188 194 207 202 186 190 198 185 185 190 183 187 183 184 184 185 183 180 181 181 182 181 183 183 176 184 194 193 194 177 189 199 170 147 151 164
266 233 177 206 216 224 240 235 198 250 258 285 167 153 240 300 279 213 215 183 226 242 247 252 254 261 272 272 273 280 280 279 285 287 1 328 290 265 277 267 246 242 246 222 226 215 203 197 186 188 187 187 184 177 180 183 184 187 190 196 196 200 206 203 187 193 185 174 178 181 176 188 189 190 184 187 186 184 181 182 182 181 183 185 180 189 193 191 180 187 188 197 179 194 184 164 167
223 243 150 171 202 206 161 179 204 227 26 300 201 104 298 255 274 27 132 131 256 250 250 247 251 261 264 268 277 275 276 300 316 328 334 320 296 298 279 285 270 269 254 219 221 221 213 198 188 184 189 184 184 181 183 189 190 188 191 193 200 211 206 195 171 168 174 171 177 173 177 182 187 194 190 187 188 185 185 185 183 184 185 185 187 189 190 181 187 183 184 187 195 201 203 173 152
258 115 82 78 76 70 135 126 136 325 15 267 173 170 227 280 289 98 357 182 246 238 245 280 290 283 280 282 286 279 291 20 48 10 321 293 292 295 298 294 303 285 279 243 237 200 199 198 197 189 195 188 184 185 187 190 192 187 193 200 204 203 191 165 155 169 175 174 184 182 181 179 187 188 192 190 187 191 190 186 186 189 190 186 187 189 184 184 188 192 192 192 188 191 197 181 183
124 76 66 4 37 40 26 67 92 53 255 257 169 195 164 274 287 173 133 200 204 255 311 260 279 276 272 269 265 285 308 15 7 339 256 272 300 300 323 313 299 315 322 290 223 188 178 180 197 207 205 191 188 189 188 192 193 193 200 201 202 198 187 168 166 176 167 172 188 188 187 191 183 192 187 192 195 192 193 190 190 192 189 187 187 186 191 189 190 189 187 185 191 190 189 188 186
149 190 129 28 310 13 30 340 36 201 270 242 186 179 179 225 295 319 245 288 251 192 244 288 287 277 268 278 275 270 294 53 19 7 333 339 339 349 6 341 325 309 324 291 214 179 174 182 179 200 210 203 194 195 195 197 196 203 207 204 203 200 185 184 188 184 182 184 186 186 185 178 191 190 190 196 199 194 192 192 192 190 191 189 195 193 190 189 183 179 177 187 193 196 185 183 183
116 92 74 207 268 30 307 38 277 191 226 268 267 148 351 243 241 252 280 271 276 230 218 241 256 268 280 285 303 316 324 67 63 353 316 334 337 327 340 322 309 303 285 257 218 185 181 185 187 192 209 202 200 197 201 200 200 205 204 203 205 197 194 194 196 192 187 187 186 182 179 190 182 186 198 198 200 190 187 189 192 194 197 200 196 189 191 183 178 182 185 189 190 190 191 188 183
136 162 168 145 263 243 256 267 264 298 295 260 174 172 238 275 296 224 246 253 247 241 228 235 234 236 260 299 314 314 316 340 337 356 312 319 325 321 314 297 272 264 258 254 234 188 186 192 197 204 208 196 212 211 209 207 212 211 205 204 202 196 201 198 199 197 191 193 187 189 188 188 187 197 193 200 192 185 190 197 191 196 198 195 195 194 188 186 182 185 186 189 195 197 187 191 195
201 126 158 189 175 160 247 196 239 234 228 351 268 131 235 89 239 236 232 277 331 258 265 251 251 254 279 288 294 295 316 310 353 352 325 320 318 309 304 314 320 299 274 258 245 216 188 204 200 207 209 201 194 208 214 218 217 214 212 210 206 204 205 201 204 200 190 190 192 191 194 193 197 199 198 196 178 188 194 190 193 193 191 191 190 192 193 188 187 185 189 195 193 189 192 187 192
205 167 62 52 235 129 234 239 240 289 354 315 214 219 217 236 91 288 225 267 280 261 266 344 308 303 298 312 290 292 289 307 323 326 324 300 277 290 304 307 304 305 262 236 236 224 209 218 212 212 211 203 203 201 212 220 224 219 216 213 215 212 211 207 207 203 202 194 193 194 195 196 200 192 192 182 190 185 190 192 190 195 190 188 189 189 188 189 187 187 189 189 194 183 188 192 194
210 110 205 217 111 160 281 325 253 94 12 256 223 286 271 297 282 269 325 292 287 309 289 295 285 294 317 266 286 289 309 330 319 342 315 288 259 272 266 295 318 299 277 255 248 231 224 223 223 224 219 211 208 209 210 214 234 231 226 223 221 220 219 216 212 206 201 195 194 198 196 199 190 189 190 187 183 190 190 190 191 192 192 190 187 188 187 187 186 191 192 191 195 185 186 194 183
109 189 237 82 172 111 160 232 7 231 239 263 268 268 276 311 284 68 28 53 339 347 325 297 291 285 282 259 266 309 320 294 290 281 279 302 299 343 22 258 291 326 326 316 296 267 262 259 248 241 238 226 221 205 206 203 214 230 233 229 225 224 224 229 231 225 212 199 198 196 196 190 198 190 180 182 182 184 188 190 193 193 193 189 191 187 186 186 184 193 194 195 193 174 185 187 189
152 185 298 147 238 256 273 84 243 243 240 261 215 260 268 257 268 287 307 301 312 311 306 335 307 288 263 302 305 304 288 308 324 336 341 342 359 8 20 14 358 341 321 309 308 316 310 282 274 270 265 271 262 233 206 210 207 213 219 228 227 227 225 225 224 217 206 214 211 207 203 203 181 183 184 181 182 185 187 191 191 193 188 191 189 190 186 186 186 191 191 193 183 177 186 189 187
103 36 337 126 55 262 134 199 223 197 261 252 248 231 255 239 261 292 42 258 287 304 322 280 275 298 287 304 331 321 332 325 331 353 355 3 8 16 16 6 358 349 342 330 285 226 241 258 291 293 296 301 289 271 256 228 216 212 218 218 228 229 233 233 230 222 217 213 213 213 214 202 203 188 192 181 186 188 188 189 192 190 189 187 189 189 186 187 185 193 189 189 185 179 187 191 184
249 280 274 303 229 227 63 309 195 233 262 241 271 251 243 245 254 292 145 184 259 288 305 312 303 270 272 271 281 319 345 5 7 7 10 12 14 12 10 6 360 358 359 360 1 355 344 349 344 332 318 312 306 302 301 298 308 267 243 233 229 222 231 226 231 226 230 229 224 216 213 215 194 205 189 190 193 191 189 190 189 191 190 188 187 187 187 186 188 192 191 189 180 184 188 190 175
193 196 225 216 225 269 261 259 157 190 230 252 248 253 250 275 292 292 89 70 340 316 212 316 318 320 321 338 360 15 17 13 17 17 18 15 12 8 6 6 6 8 9 8 3 2 360 352 344 335 332 300 283 271 251 261 264 261 256 250 245 238 229 219 226 224 226 224 218 217 214 199 210 213 199 205 196 192 191 189 189 192 191 189 189 190 186 186 189 190 191 186 185 184 189 186 178